CW8081 Thessaloniki GR current weather conditions

sailwx.info

Last reported at 2016-Jan-02 01:34 UTC.
Time now 2016-Aug-28 05:15 UTC

Location: N 40°34' E 022°58'.
View on Google Maps.

See reports from other nearby stations

  
Tides and Currents Weather Stations Pressure Air Temp Water Temp Dewpoint Dewpoint Depression Visibility Wind Speed Wind Dir Waves Ship Positions
date/time (UTC)wind fromknots sea level pressurealtimeterstation pressurevisibilityair tempwater tempwave heightnotes
2016-Aug-28 03:41 023 22.2
2016-Aug-28 03:31 023 1 gusting 5 22.2
2016-Aug-28 03:11 027 2 gusting 6 22.2
2016-Aug-28 02:41 350 22.8
2016-Aug-28 02:01 241 23.3
2016-Aug-28 01:41 242 4 gusting 7 23.9
2016-Aug-28 01:01 123 23.3
2016-Aug-28 00:41 078 0 gusting 5 23.3
2016-Aug-27 23:31 126 22.8
2016-Aug-27 22:01 125 23.9
2016-Aug-27 21:41 125 23.9
2016-Aug-27 21:31 125 23.9
2016-Aug-27 21:01 125 23.9
2016-Aug-27 20:41 140 23.9
2016-Aug-27 19:41 140 24.4
2016-Aug-27 19:31 140 25.0
2016-Aug-27 18:41 140 25.0
2016-Aug-27 17:41 143 2 gusting 4 26.1
2016-Aug-27 17:31 148 26.7
2016-Aug-27 17:11 153 0 gusting 4 26.7
2016-Aug-27 17:01 154 27.2
2016-Aug-27 16:41 117 1 gusting 6 27.8
2016-Aug-27 16:31 169 2 gusting 6 28.3
2016-Aug-27 16:01 155 1 gusting 11 28.3
2016-Aug-27 15:41 201 4 gusting 7 28.3
2016-Aug-27 15:11 141 6 gusting 11 28.9
2016-Aug-27 14:41 192 8 gusting 13 28.3
2016-Aug-27 14:31 205 5 gusting 8 28.3
2016-Aug-27 14:01 262 4 gusting 8 28.3
2016-Aug-27 13:41 267 1 gusting 8 28.9
2016-Aug-27 13:01 261 6 gusting 10 28.9
2016-Aug-27 12:41 243 5 gusting 10 28.3
2016-Aug-27 12:11 230 6 gusting 12 28.9
2016-Aug-27 11:01 229 5 gusting 13 28.9
2016-Aug-27 10:41 230 6 gusting 11 28.3
2016-Aug-27 09:41 283 6 gusting 10 27.2
2016-Aug-27 09:11 259 4 gusting 10 27.2
2016-Aug-27 08:41 250 5 gusting 8 27.2
2016-Aug-27 08:31 229 5 gusting 11 27.2
2016-Aug-27 08:01 242 6 gusting 8 26.1
2016-Aug-27 07:41 210 6 gusting 8 26.1
2016-Aug-27 07:01 199 4 gusting 6 25.0
2016-Aug-27 06:11 204 2 gusting 4 24.4
2016-Aug-27 05:41 223 3 gusting 5 23.9
2016-Aug-27 05:31 265 1 gusting 4 23.9
2016-Aug-27 05:11 328 23.3
2016-Aug-27 05:01 328 23.3
2016-Aug-27 04:01 261 22.8
2016-Aug-27 03:41 250 0 gusting 6 23.3
2016-Aug-27 03:31 268 23.3
2016-Aug-27 03:11 040 23.3
2016-Aug-27 03:01 040 23.3
2016-Aug-27 02:41 040 23.9
2016-Aug-27 02:31 039 23.9
2016-Aug-27 02:01 086 0 gusting 2 23.9
2016-Aug-27 01:41 138 23.9
2016-Aug-27 01:31 138 23.9
2016-Aug-27 01:11 157 23.9
2016-Aug-27 00:11 140 0 gusting 2 25.0
2016-Aug-27 00:01 133 2 gusting 7 25.0
2016-Aug-26 23:41 159 3 gusting 10 25.6
2016-Aug-26 23:31 138 3 gusting 7 25.0
2016-Aug-26 23:11 142 5 gusting 8 25.0
2016-Aug-26 23:01 142 4 gusting 8 25.0
2016-Aug-26 22:31 155 1 gusting 8 24.4
2016-Aug-26 22:01 173 22.2
2016-Aug-26 21:41 178 22.2
2016-Aug-26 21:11 178 22.8
2016-Aug-26 21:01 178 22.8
2016-Aug-26 20:41 178 23.3
2016-Aug-26 20:31 178 0 gusting 5 23.3
2016-Aug-26 20:11 149 1 gusting 2 24.4
2016-Aug-26 20:01 149 24.4
2016-Aug-26 19:31 150 0 gusting 4 24.4
2016-Aug-26 19:01 142 25.0
2016-Aug-26 18:41 145 1 gusting 4 25.6
2016-Aug-26 18:11 148 26.1
2016-Aug-26 18:01 148 26.1
2016-Aug-26 17:41 142 1 gusting 4 26.7
2016-Aug-26 17:31 147 26.7
2016-Aug-26 17:11 145 1 gusting 4 27.2
2016-Aug-26 17:01 166 1 gusting 7 27.8
2016-Aug-26 16:31 163 4 gusting 8 28.3
2016-Aug-26 16:11 169 5 gusting 8 28.9
2016-Aug-26 15:41 175 5 gusting 7 29.4
2016-Aug-26 15:31 184 3 gusting 7 29.4
2016-Aug-26 15:11 221 6 gusting 7 29.4
2016-Aug-26 15:01 202 6 gusting 10 29.4
2016-Aug-26 14:41 219 6 gusting 10 29.4
2016-Aug-26 14:31 194 6 gusting 11 29.4
2016-Aug-26 14:11 225 6 gusting 10 30.0
2016-Aug-26 14:01 217 5 gusting 11 29.4
2016-Aug-26 13:41 225 8 gusting 13 28.9
2016-Aug-26 13:31 209 8 gusting 13 29.4
2016-Aug-26 13:11 212 8 gusting 12 29.4
2016-Aug-26 13:01 240 6 gusting 12 29.4
2016-Aug-26 12:11 254 6 gusting 11 30.0
2016-Aug-26 12:01 252 6 gusting 13 29.4
2016-Aug-26 11:31 276 6 gusting 11 28.9
2016-Aug-26 11:11 211 6 gusting 12 28.9
2016-Aug-26 11:01 233 6 gusting 11 28.9
2016-Aug-26 10:41 231 4 gusting 10 28.3
2016-Aug-26 10:31 268 6 gusting 12 28.3
2016-Aug-26 10:11 213 6 gusting 13 28.3
2016-Aug-26 09:41 237 6 gusting 11 27.8
2016-Aug-26 09:11 283 6 gusting 11 27.8
2016-Aug-26 09:01 273 6 gusting 13 27.2
2016-Aug-26 08:31 214 8 gusting 13 27.2
2016-Aug-26 07:41 264 4 gusting 8 26.7
2016-Aug-26 07:31 262 4 gusting 6 25.6
2016-Aug-26 07:11 220 0 gusting 2 25.6
2016-Aug-26 07:01 220 1 gusting 4 25.6
2016-Aug-26 06:41 219 1 gusting 6 25.6
2016-Aug-26 06:31 215 5 gusting 7 25.6
2016-Aug-26 06:11 217 5 gusting 6 25.6
2016-Aug-26 06:01 217 3 gusting 5 25.6
2016-Aug-26 05:41 220 0 gusting 2 25.0
2016-Aug-26 05:31 225 24.4
2016-Aug-26 05:01 227 23.9